Time,TemperatureF,DewpointF,PressureIn,WindDirection,WindDirectionDegrees,WindSpeedMPH,WindSpeedGustMPH,Humidity,HourlyPrecipIn,Conditions,Clouds,dailyrainin,SoftwareType,DateUTC
2013-06-11 00:02:00,80.0,70.0,29.89,SE,128,0.0,3.0,72,0.00,,,0.00,,2013-06-11 05:02:00,
2013-06-11 00:12:00,80.0,70.0,29.89,SE,128,0.0,3.0,72,0.00,,,0.00,,2013-06-11 05:12:00,
2013-06-11 00:22:00,80.0,71.0,29.90,West,259,0.0,1.0,73,0.00,,,0.00,,2013-06-11 05:22:00,
2013-06-11 00:32:00,79.0,70.0,29.89,East,100,0.0,2.0,74,0.00,,,0.00,,2013-06-11 05:32:00,
2013-06-11 00:42:00,79.0,70.0,29.89,East,100,0.0,2.0,74,0.00,,,0.00,,2013-06-11 05:42:00,
2013-06-11 00:52:00,79.0,70.0,29.89,SE,143,0.0,3.0,74,0.00,,,0.00,,2013-06-11 05:52:00,
2013-06-11 01:02:00,78.0,69.0,29.89,SW,233,0.0,1.0,75,0.00,,,0.00,,2013-06-11 06:02:00,
2013-06-11 01:12:00,78.0,69.0,29.89,SW,233,0.0,1.0,75,0.00,,,0.00,,2013-06-11 06:12:00,
2013-06-11 01:22:00,78.0,69.0,29.90,SW,229,0.0,1.0,75,0.00,,,0.00,,2013-06-11 06:22:00,
2013-06-11 01:32:00,78.0,69.0,29.90,South,180,0.0,1.0,75,0.00,,,0.00,,2013-06-11 06:32:00,
2013-06-11 01:42:00,78.0,69.0,29.90,South,180,0.0,1.0,75,0.00,,,0.00,,2013-06-11 06:42:00,
2013-06-11 01:52:00,77.0,69.0,29.90,South,187,0.0,1.0,76,0.00,,,0.00,,2013-06-11 06:52:00,
2013-06-11 02:02:00,77.0,69.0,29.90,SW,229,0.0,1.0,76,0.00,,,0.00,,2013-06-11 07:02:00,
2013-06-11 02:13:00,76.0,68.0,29.90,SSW,202,0.0,1.0,76,0.00,,,0.00,,2013-06-11 07:13:00,
2013-06-11 02:22:00,76.0,68.0,29.90,SSW,202,0.0,1.0,76,0.00,,,0.00,,2013-06-11 07:22:00,
2013-06-11 02:32:00,76.0,68.0,29.90,SSW,200,0.0,0.0,77,0.00,,,0.00,,2013-06-11 07:32:00,
2013-06-11 02:42:00,76.0,68.0,29.90,South,191,0.0,1.0,77,0.00,,,0.00,,2013-06-11 07:42:00,
2013-06-11 02:52:00,76.0,68.0,29.90,South,191,0.0,1.0,77,0.00,,,0.00,,2013-06-11 07:52:00,
2013-06-11 03:02:00,75.0,67.0,29.90,South,191,0.0,1.0,77,0.00,,,0.00,,2013-06-11 08:02:00,
2013-06-11 03:12:00,75.0,67.0,29.90,South,191,0.0,1.0,77,0.00,,,0.00,,2013-06-11 08:12:00,
2013-06-11 03:22:00,75.0,67.0,29.90,South,191,0.0,0.0,77,0.00,,,0.00,,2013-06-11 08:22:00,
2013-06-11 03:32:00,74.0,67.0,29.90,South,191,0.0,0.0,78,0.00,,,0.00,,2013-06-11 08:32:00,
2013-06-11 03:42:00,74.0,67.0,29.90,SSW,192,0.0,0.0,79,0.00,,,0.00,,2013-06-11 08:42:00,
2013-06-11 03:52:00,74.0,67.0,29.90,SSW,192,0.0,0.0,79,0.00,,,0.00,,2013-06-11 08:52:00,
2013-06-11 04:02:00,73.0,66.0,29.90,South,191,0.0,0.0,80,0.00,,,0.00,,2013-06-11 09:02:00,
2013-06-11 04:12:00,73.0,66.0,29.90,South,191,0.0,0.0,80,0.00,,,0.00,,2013-06-11 09:12:00,
2013-06-11 04:22:00,73.0,67.0,29.90,South,191,0.0,0.0,81,0.00,,,0.00,,2013-06-11 09:22:00,
2013-06-11 04:33:00,72.0,66.0,29.90,South,191,0.0,0.0,82,0.00,,,0.00,,2013-06-11 09:33:00,
2013-06-11 04:43:00,72.0,66.0,29.90,South,191,0.0,0.0,82,0.00,,,0.00,,2013-06-11 09:43:00,
2013-06-11 04:53:00,71.0,66.0,29.91,South,191,0.0,0.0,84,0.00,,,0.00,,2013-06-11 09:53:00,
2013-06-11 05:03:00,71.0,66.0,29.91,SSW,192,0.0,0.0,85,0.00,,,0.00,,2013-06-11 10:03:00,
2013-06-11 05:12:00,71.0,66.0,29.91,SSW,192,0.0,0.0,85,0.00,,,0.00,,2013-06-11 10:12:00,
2013-06-11 05:22:00,71.0,66.0,29.91,South,191,0.0,0.0,85,0.00,,,0.00,,2013-06-11 10:22:00,
2013-06-11 05:33:00,71.0,66.0,29.91,South,191,0.0,0.0,85,0.00,,,0.00,,2013-06-11 10:33:00,
2013-06-11 05:42:00,71.0,66.0,29.91,South,191,0.0,0.0,85,0.00,,,0.00,,2013-06-11 10:42:00,
2013-06-11 05:52:00,71.0,67.0,29.91,South,191,0.0,0.0,86,0.00,,,0.00,,2013-06-11 10:52:00,
2013-06-11 06:02:00,71.0,67.0,29.92,South,191,0.0,0.0,86,0.00,,,0.00,,2013-06-11 11:02:00,
2013-06-11 06:12:00,71.0,67.0,29.92,South,191,0.0,0.0,86,0.00,,,0.00,,2013-06-11 11:12:00,
2013-06-11 06:22:00,71.0,67.0,29.92,South,191,0.0,0.0,87,0.00,,,0.00,,2013-06-11 11:22:00,
2013-06-11 06:32:00,70.0,66.0,29.93,South,191,0.0,0.0,88,0.00,,,0.00,,2013-06-11 11:32:00,
2013-06-11 06:42:00,70.0,66.0,29.93,South,191,0.0,0.0,88,0.00,,,0.00,,2013-06-11 11:42:00,
2013-06-11 06:52:00,69.0,66.0,29.93,South,191,0.0,0.0,89,0.00,,,0.00,,2013-06-11 11:52:00,
2013-06-11 07:02:00,69.0,66.0,29.94,SSW,192,0.0,0.0,89,0.00,,,0.00,,2013-06-11 12:02:00,
2013-06-11 07:12:00,69.0,66.0,29.95,SSW,192,0.0,0.0,90,0.00,,,0.00,,2013-06-11 12:12:00,
2013-06-11 07:22:00,69.0,66.0,29.95,SSW,192,0.0,0.0,90,0.00,,,0.00,,2013-06-11 12:22:00,
2013-06-11 07:32:00,69.0,66.0,29.95,SSW,192,0.0,0.0,90,0.00,,,0.00,,2013-06-11 12:32:00,
2013-06-11 07:42:00,70.0,67.0,29.96,SW,229,0.0,1.0,89,0.00,,,0.00,,2013-06-11 12:42:00,
2013-06-11 07:52:00,70.0,67.0,29.96,SW,229,0.0,1.0,89,0.00,,,0.00,,2013-06-11 12:52:00,
2013-06-11 08:02:00,72.0,67.0,29.96,West,266,0.0,2.0,84,0.00,,,0.00,,2013-06-11 13:02:00,
2013-06-11 08:12:00,72.0,67.0,29.96,West,266,0.0,2.0,84,0.00,,,0.00,,2013-06-11 13:12:00,
2013-06-11 08:22:00,74.0,68.0,29.97,SW,214,0.0,3.0,82,0.00,,,0.00,,2013-06-11 13:22:00,
2013-06-11 08:32:00,75.0,68.0,29.97,WSW,240,0.0,4.0,80,0.00,,,0.00,,2013-06-11 13:32:00,
2013-06-11 08:42:00,75.0,68.0,29.97,WSW,240,0.0,4.0,80,0.00,,,0.00,,2013-06-11 13:42:00,
2013-06-11 08:52:00,76.0,69.0,29.97,SSW,213,0.0,3.0,79,0.00,,,0.00,,2013-06-11 13:52:00,
2013-06-11 09:02:00,77.0,69.0,29.97,West,269,1.0,5.0,76,0.00,,,0.00,,2013-06-11 14:02:00,
2013-06-11 09:12:00,77.0,69.0,29.97,West,269,1.0,5.0,76,0.00,,,0.00,,2013-06-11 14:12:00,
2013-06-11 09:22:00,79.0,70.0,29.97,SW,233,0.0,4.0,74,0.00,,,0.00,,2013-06-11 14:22:00,
2013-06-11 09:32:00,80.0,70.0,29.98,West,273,0.0,4.0,72,0.00,,,0.00,,2013-06-11 14:32:00,
2013-06-11 09:42:00,80.0,70.0,29.98,West,273,0.0,4.0,72,0.00,,,0.00,,2013-06-11 14:42:00,
2013-06-11 09:52:00,82.0,71.0,29.98,SSW,204,0.0,6.0,69,0.00,,,0.00,,2013-06-11 14:52:00,
2013-06-11 10:02:00,83.0,70.0,29.97,SSW,207,0.0,5.0,66,0.00,,,0.00,,2013-06-11 15:02:00,
2013-06-11 10:12:00,83.0,70.0,29.97,SSW,207,0.0,5.0,66,0.00,,,0.00,,2013-06-11 15:12:00,
2013-06-11 10:22:00,84.0,71.0,29.97,West,267,1.0,5.0,65,0.00,,,0.00,,2013-06-11 15:22:00,
2013-06-11 10:33:00,85.0,70.0,29.97,SW,224,2.0,6.0,62,0.00,,,0.00,,2013-06-11 15:33:00,
2013-06-11 10:42:00,85.0,70.0,29.97,SW,224,2.0,6.0,62,0.00,,,0.00,,2013-06-11 15:42:00,
2013-06-11 10:53:00,87.0,71.0,29.97,SW,235,1.0,5.0,60,0.00,,,0.00,,2013-06-11 15:53:00,
2013-06-11 11:03:00,87.0,71.0,29.97,NNE,32,0.0,4.0,60,0.00,,,0.00,,2013-06-11 16:03:00,
2013-06-11 11:12:00,87.0,71.0,29.97,NNE,32,0.0,4.0,60,0.00,,,0.00,,2013-06-11 16:12:00,
2013-06-11 11:22:00,89.0,71.0,29.98,West,262,0.0,4.0,56,0.00,,,0.00,,2013-06-11 16:22:00,
2013-06-11 11:32:00,89.0,70.0,29.98,NE,51,0.0,4.0,54,0.00,,,0.00,,2013-06-11 16:32:00,
2013-06-11 11:42:00,90.0,71.0,29.97,SSW,207,1.0,5.0,54,0.00,,,0.00,,2013-06-11 16:42:00,
2013-06-11 11:52:00,90.0,71.0,29.97,SSW,207,1.0,5.0,54,0.00,,,0.00,,2013-06-11 16:52:00,
2013-06-11 12:02:00,90.0,72.0,29.97,WNW,284,0.0,4.0,56,0.00,,,0.00,,2013-06-11 17:02:00,
2013-06-11 12:12:00,90.0,72.0,29.97,WNW,284,0.0,4.0,56,0.00,,,0.00,,2013-06-11 17:12:00,
2013-06-11 12:22:00,92.0,72.0,29.97,WSW,238,2.0,7.0,53,0.00,,,0.00,,2013-06-11 17:22:00,
2013-06-11 12:32:00,92.0,71.0,29.97,SE,145,2.0,9.0,50,0.00,,,0.00,,2013-06-11 17:32:00,
2013-06-11 12:43:00,92.0,72.0,29.97,South,181,2.0,8.0,52,0.00,,,0.00,,2013-06-11 17:43:00,
2013-06-11 12:52:00,92.0,72.0,29.97,South,181,2.0,8.0,52,0.00,,,0.00,,2013-06-11 17:52:00,
2013-06-11 13:02:00,92.0,71.0,29.97,SSW,211,2.0,7.0,51,0.00,,,0.00,,2013-06-11 18:02:00,
2013-06-11 13:12:00,92.0,71.0,29.97,SSW,211,2.0,7.0,51,0.00,,,0.00,,2013-06-11 18:12:00,
2013-06-11 13:22:00,92.0,69.0,29.96,West,280,1.0,8.0,48,0.00,,,0.00,,2013-06-11 18:22:00,
2013-06-11 13:32:00,93.0,71.0,29.96,SW,229,2.0,10.0,49,0.00,,,0.00,,2013-06-11 18:32:00,
2013-06-11 13:42:00,93.0,71.0,29.96,SW,229,2.0,10.0,49,0.00,,,0.00,,2013-06-11 18:42:00,
2013-06-11 13:52:00,93.0,68.0,29.96,SSE,163,3.0,8.0,44,0.00,,,0.00,,2013-06-11 18:52:00,
2013-06-11 14:02:00,94.0,69.0,29.96,West,263,2.0,6.0,45,0.00,,,0.00,,2013-06-11 19:02:00,
2013-06-11 14:12:00,94.0,69.0,29.96,West,263,2.0,6.0,45,0.00,,,0.00,,2013-06-11 19:12:00,
2013-06-11 14:22:00,94.0,69.0,29.95,West,273,2.0,7.0,45,0.00,,,0.00,,2013-06-11 19:22:00,
2013-06-11 14:33:00,93.0,71.0,29.96,South,191,2.0,6.0,49,0.00,,,0.00,,2013-06-11 19:33:00,
2013-06-11 14:42:00,93.0,71.0,29.96,South,191,2.0,6.0,49,0.00,,,0.00,,2013-06-11 19:42:00,
2013-06-11 14:52:00,93.0,70.0,29.95,WSW,252,2.0,5.0,48,0.00,,,0.00,,2013-06-11 19:52:00,
2013-06-11 15:02:00,94.0,69.0,29.94,SSE,158,2.0,6.0,45,0.00,,,0.00,,2013-06-11 20:02:00,
2013-06-11 15:12:00,94.0,69.0,29.94,SSE,158,2.0,6.0,45,0.00,,,0.00,,2013-06-11 20:12:00,
2013-06-11 15:22:00,93.0,70.0,29.94,SW,215,2.0,9.0,48,0.00,,,0.00,,2013-06-11 20:22:00,
2013-06-11 15:32:00,94.0,71.0,29.93,West,266,2.0,8.0,48,0.00,,,0.00,,2013-06-11 20:32:00,
2013-06-11 15:42:00,94.0,71.0,29.93,West,266,2.0,8.0,48,0.00,,,0.00,,2013-06-11 20:42:00,
2013-06-11 15:52:00,94.0,71.0,29.92,SSE,148,4.0,15.0,48,0.00,,,0.00,,2013-06-11 20:52:00,
2013-06-11 16:02:00,94.0,72.0,29.92,SE,127,2.0,9.0,49,0.00,,,0.00,,2013-06-11 21:02:00,
2013-06-11 16:12:00,94.0,72.0,29.92,SE,127,2.0,9.0,49,0.00,,,0.00,,2013-06-11 21:12:00,
2013-06-11 16:22:00,93.0,72.0,29.92,West,262,3.0,12.0,50,0.00,,,0.00,,2013-06-11 21:22:00,
2013-06-11 16:33:00,93.0,72.0,29.91,SSW,208,2.0,6.0,50,0.00,,,0.00,,2013-06-11 21:33:00,
2013-06-11 16:42:00,93.0,72.0,29.91,SSW,208,2.0,6.0,50,0.00,,,0.00,,2013-06-11 21:42:00,
2013-06-11 16:53:00,93.0,70.0,29.91,SE,146,3.0,9.0,47,0.00,,,0.00,,2013-06-11 21:53:00,
2013-06-11 17:03:00,93.0,70.0,29.91,ESE,111,2.0,15.0,48,0.00,,,0.00,,2013-06-11 22:03:00,
2013-06-11 17:12:00,93.0,70.0,29.91,ESE,111,2.0,15.0,48,0.00,,,0.00,,2013-06-11 22:12:00,
2013-06-11 17:22:00,93.0,71.0,29.90,SW,235,2.0,5.0,49,0.00,,,0.00,,2013-06-11 22:22:00,
2013-06-11 17:33:00,93.0,72.0,29.90,WSW,252,2.0,8.0,51,0.00,,,0.00,,2013-06-11 22:33:00,
2013-06-11 17:42:00,93.0,72.0,29.90,WSW,252,2.0,8.0,51,0.00,,,0.00,,2013-06-11 22:42:00,
2013-06-11 17:52:00,93.0,73.0,29.90,SSW,204,1.0,12.0,52,0.00,,,0.00,,2013-06-11 22:52:00,
2013-06-11 18:02:00,93.0,72.0,29.90,SSW,194,1.0,10.0,51,0.00,,,0.00,,2013-06-11 23:02:00,
2013-06-11 18:12:00,93.0,72.0,29.90,SSW,194,1.0,10.0,51,0.00,,,0.00,,2013-06-11 23:12:00,
2013-06-11 18:22:00,92.0,73.0,29.89,West,274,2.0,6.0,54,0.00,,,0.00,,2013-06-11 23:22:00,
2013-06-11 18:32:00,92.0,72.0,29.89,SW,214,1.0,11.0,52,0.00,,,0.00,,2013-06-11 23:32:00,
2013-06-11 18:42:00,92.0,72.0,29.89,SW,214,1.0,11.0,52,0.00,,,0.00,,2013-06-11 23:42:00,
2013-06-11 18:52:00,90.0,71.0,29.89,South,189,2.0,9.0,53,0.00,,,0.00,,2013-06-11 23:52:00,
2013-06-11 19:02:00,90.0,73.0,29.88,ESE,122,3.0,11.0,57,0.00,,,0.00,,2013-06-12 00:02:00,
2013-06-11 19:12:00,89.0,73.0,29.88,SSW,200,3.0,10.0,59,0.00,,,0.00,,2013-06-12 00:12:00,
2013-06-11 19:22:00,89.0,73.0,29.88,SSW,200,3.0,10.0,59,0.00,,,0.00,,2013-06-12 00:22:00,
2013-06-11 19:32:00,89.0,72.0,29.88,SSE,165,3.0,10.0,58,0.00,,,0.00,,2013-06-12 00:32:00,
2013-06-11 19:42:00,89.0,72.0,29.88,SSE,165,3.0,10.0,58,0.00,,,0.00,,2013-06-12 00:42:00,
2013-06-11 19:52:00,89.0,73.0,29.88,West,266,2.0,9.0,59,0.00,,,0.00,,2013-06-12 00:52:00,
2013-06-11 20:02:00,88.0,73.0,29.88,South,191,2.0,10.0,61,0.00,,,0.00,,2013-06-12 01:02:00,
2013-06-11 20:12:00,88.0,73.0,29.88,South,191,2.0,10.0,61,0.00,,,0.00,,2013-06-12 01:12:00,
2013-06-11 20:22:00,88.0,73.0,29.88,WSW,239,2.0,9.0,62,0.00,,,0.00,,2013-06-12 01:22:00,
2013-06-11 20:32:00,87.0,73.0,29.88,SSW,211,1.0,5.0,63,0.00,,,0.00,,2013-06-12 01:32:00,
2013-06-11 20:42:00,87.0,73.0,29.88,SSW,211,1.0,5.0,63,0.00,,,0.00,,2013-06-12 01:42:00,
2013-06-11 20:52:00,86.0,72.0,29.88,South,182,1.0,8.0,64,0.00,,,0.00,,2013-06-12 01:52:00,
2013-06-11 21:02:00,86.0,72.0,29.89,SSE,147,0.0,10.0,63,0.00,,,0.00,,2013-06-12 02:02:00,
2013-06-11 21:12:00,86.0,72.0,29.89,SSE,147,0.0,10.0,63,0.00,,,0.00,,2013-06-12 02:12:00,
2013-06-11 21:22:00,85.0,70.0,29.89,WNW,297,1.0,9.0,62,0.00,,,0.00,,2013-06-12 02:22:00,
2013-06-11 21:32:00,85.0,71.0,29.90,West,269,0.0,5.0,64,0.00,,,0.00,,2013-06-12 02:32:00,
2013-06-11 21:42:00,84.0,71.0,29.91,SW,220,0.0,4.0,65,0.00,,,0.00,,2013-06-12 02:42:00,
2013-06-11 21:52:00,84.0,71.0,29.91,SW,220,0.0,4.0,65,0.00,,,0.00,,2013-06-12 02:52:00,
2013-06-11 22:02:00,83.0,70.0,29.91,South,191,1.0,6.0,66,0.00,,,0.00,,2013-06-12 03:02:00,
2013-06-11 22:12:00,83.0,70.0,29.91,South,191,1.0,6.0,66,0.00,,,0.00,,2013-06-12 03:12:00,
2013-06-11 22:22:00,83.0,71.0,29.91,SE,136,1.0,4.0,68,0.00,,,0.00,,2013-06-12 03:22:00,
2013-06-11 22:32:00,83.0,72.0,29.92,SW,221,0.0,8.0,69,0.00,,,0.00,,2013-06-12 03:32:00,
2013-06-11 22:42:00,83.0,72.0,29.92,SW,221,0.0,8.0,69,0.00,,,0.00,,2013-06-12 03:42:00,
2013-06-11 22:53:00,82.0,71.0,29.93,WNW,283,0.0,2.0,70,0.00,,,0.00,,2013-06-12 03:53:00,
2013-06-11 23:03:00,82.0,71.0,29.93,South,188,1.0,7.0,69,0.00,,,0.00,,2013-06-12 04:03:00,
2013-06-11 23:13:00,82.0,71.0,29.93,South,188,1.0,7.0,69,0.00,,,0.00,,2013-06-12 04:13:00,
2013-06-11 23:23:00,82.0,71.0,29.93,South,172,2.0,7.0,69,0.00,,,0.00,,2013-06-12 04:23:00,
2013-06-11 23:33:00,82.0,71.0,29.93,SE,141,1.0,9.0,70,0.00,,,0.00,,2013-06-12 04:33:00,
2013-06-11 23:42:00,82.0,71.0,29.93,SE,141,1.0,9.0,70,0.00,,,0.00,,2013-06-12 04:42:00,
2013-06-11 23:52:00,81.0,71.0,29.92,SSE,166,2.0,9.0,71,0.00,,,0.00,,2013-06-12 04:52:00,